Paynesville, MN

1:53 PM CDT on April 27, 2017 (GMT -0500)
Paynesville

Weather History for KPEX - November, 2013

Change the Weather History Date:

Thursday, November 14, 2013

  Actual Average (KLJF) Record (KLJF)
Temperature  
Mean Temperature 39 °F -  
Max Temperature 52 °F 40 °F 74 °F (1990)
Min Temperature 26 °F 25 °F -2 °F (1959)
Degree Days  
Heating Degree Days 26    
Moisture  
Dew Point 31 °F    
Average Humidity 79    
Maximum Humidity 97    
Minimum Humidity 52    
Precipitation  
Precipitation 0.00 in - - ()
Sea Level Pressure  
Sea Level Pressure 29.80 in    
Wind  
Wind Speed 4 mph (West)    
Max Wind Speed 18 mph    
Max Gust Speed 22 mph    
Visibility 10 miles    
Events      
Averages and records for this station are not official NWS values.
T = Trace of Precipitation, MM = Missing Value Source: NWS Daily Summary

Daily Weather History Graph

Daily Weather History Graph

Search for Another Location

Airport or City:

Trip Planner

Search our weather history database for the weather conditions in past years. The results will help you decide how hot, cold, wet, or windy it might be!

Date:

Astronomy

Nov. 14, 2013 Rise Set
Actual Time 7:16 AM CST 4:49 PM CST
Civil Twilight 6:44 AM CST 5:21 PM CST
Nautical Twilight 6:08 AM CST 5:57 PM CST
Astronomical Twilight 5:34 AM CST 6:32 PM CST
Moon 3:18 PM CST (11/14) 4:05 AM CST (11/14)
Length of Visible Light 10h 37m
Length of Day
9h 33m
Waxing Gibbous, 92% of the Moon is Illuminated
Nov 14
Waxing Gibbous
Nov 17
Full
Nov 25
Last Quarter
Dec 2
New
Dec 9
First Quarter

Hourly Weather History & Observations

Time (CST) Temp. Windchill Dew Point Humidity Pressure Visibility Wind Dir Wind Speed Gust Speed Precip Events Conditions
12:12 AM 35.6 °F 32.8 °F 31.8 °F 86% 29.84 in 10.0 mi WSW 3.5 mph - N/A   Mostly Cloudy
12:33 AM 35.8 °F 31.9 °F 32.0 °F 86% 29.84 in 10.0 mi West 4.6 mph - N/A   Scattered Clouds
12:53 AM 35.8 °F - 32.0 °F 86% 29.84 in 10.0 mi Calm Calm - N/A   Scattered Clouds
1:13 AM 34.7 °F - 31.5 °F 88% 29.84 in 10.0 mi Calm Calm - N/A   Clear
1:32 AM 35.1 °F - 31.8 °F 88% 29.83 in 10.0 mi Calm Calm - N/A   Clear
1:53 AM 35.6 °F - 32.0 °F 87% 29.82 in 10.0 mi Calm Calm - N/A   Clear
2:12 AM 35.1 °F - 31.3 °F 86% 29.84 in 10.0 mi Calm Calm - N/A   Scattered Clouds
2:33 AM 35.4 °F - 32.0 °F 87% 29.84 in 10.0 mi Calm Calm - N/A   Overcast
2:52 AM 35.8 °F - 32.0 °F 86% 29.83 in 10.0 mi Calm Calm - N/A   Overcast
3:13 AM 35.8 °F - 32.0 °F 86% 29.82 in 10.0 mi Calm Calm - N/A   Overcast
3:32 AM 36.3 °F - 32.0 °F 84% 29.82 in 10.0 mi Calm Calm - N/A   Mostly Cloudy
3:53 AM 35.6 °F - 31.8 °F 86% 29.82 in 10.0 mi Calm Calm - N/A   Clear
4:13 AM 35.1 °F - 31.6 °F 87% 29.81 in 10.0 mi Calm Calm - N/A   Clear
4:32 AM 35.1 °F - 31.5 °F 87% 29.81 in 10.0 mi Calm Calm - N/A   Clear
4:53 AM 34.7 °F - 31.3 °F 87% 29.80 in 10.0 mi Calm Calm - N/A   Clear
5:13 AM 33.8 °F - 31.1 °F 90% 29.81 in 10.0 mi Calm Calm - N/A   Clear
5:32 AM 33.8 °F - 30.9 °F 89% 29.81 in 10.0 mi Calm Calm - N/A   Clear
5:53 AM 32.9 °F - 30.7 °F 92% 29.81 in 10.0 mi Calm Calm - N/A   Clear
6:12 AM 33.8 °F - 31.1 °F 90% 29.80 in 10.0 mi Calm Calm - N/A   Mostly Cloudy
6:32 AM 33.8 °F - 31.1 °F 90% 29.81 in 10.0 mi Calm Calm - N/A   Overcast
6:53 AM 34.3 °F - 31.6 °F 90% 29.82 in 10.0 mi Calm Calm - N/A   Mostly Cloudy
7:12 AM 36.0 °F - 31.8 °F 85% 29.82 in 10.0 mi Calm Calm - N/A   Mostly Cloudy
7:32 AM 36.5 °F - 32.0 °F 84% 29.82 in 10.0 mi Calm Calm - N/A   Mostly Cloudy
7:53 AM 35.2 °F - 31.8 °F 87% 29.82 in 10.0 mi Calm Calm - N/A   Mostly Cloudy
8:13 AM 34.7 °F - 32.0 °F 90% 29.82 in 10.0 mi Calm Calm - N/A   Scattered Clouds
8:33 AM 36.7 °F - 32.2 °F 84% 29.81 in 10.0 mi Calm Calm - N/A   Scattered Clouds
8:53 AM 38.3 °F 34.8 °F 32.7 °F 80% 29.81 in 10.0 mi SSW 4.6 mph - N/A   Scattered Clouds
9:12 AM 39.2 °F 35.0 °F 33.3 °F 79% 29.81 in 10.0 mi SW 5.8 mph - N/A   Mostly Cloudy
9:33 AM 40.3 °F 35.5 °F 33.6 °F 77% 29.81 in 10.0 mi SW 6.9 mph - N/A   Scattered Clouds
9:52 AM 41.5 °F 37.1 °F 33.8 °F 74% 29.81 in 10.0 mi SW 6.9 mph - N/A   Clear
10:13 AM 43.0 °F 38.8 °F 34.3 °F 72% 29.80 in 10.0 mi SW 6.9 mph - N/A   Clear
10:33 AM 44.1 °F 40.8 °F 34.7 °F 70% 29.80 in 10.0 mi WSW 5.8 mph - N/A   Clear
10:52 AM 44.6 °F 39.7 °F 34.7 °F 68% 29.80 in 10.0 mi WSW 9.2 mph - N/A   Clear
11:13 AM 45.1 °F 38.8 °F 34.9 °F 67% 29.79 in 10.0 mi WSW 13.8 mph - N/A   Clear
11:33 AM 47.5 °F - 35.1 °F 62% 29.79 in 10.0 mi West 10.4 mph - N/A   Clear
11:53 AM 49.3 °F - 35.1 °F 58% 29.78 in 10.0 mi West 11.5 mph - N/A   Clear
12:12 PM 50.9 °F - 35.1 °F 55% 29.77 in 10.0 mi WSW 9.2 mph - N/A   Clear
12:33 PM 51.6 °F - 34.7 °F 52% 29.76 in 10.0 mi West 13.8 mph 18.4 mph N/A   Clear
12:53 PM 52.0 °F - 34.7 °F 52% 29.76 in 10.0 mi West 15.0 mph 21.9 mph N/A   Clear
1:13 PM 52.0 °F - 34.7 °F 52% 29.76 in 10.0 mi West 18.4 mph - N/A   Clear
1:33 PM 51.8 °F - 34.7 °F 52% 29.76 in 10.0 mi West 17.3 mph - N/A   Clear
1:52 PM 51.6 °F - 34.7 °F 52% 29.76 in 10.0 mi West 11.5 mph 19.6 mph N/A   Clear
2:13 PM 51.1 °F - 34.7 °F 54% 29.75 in 10.0 mi West 13.8 mph - N/A   Clear
2:33 PM 50.5 °F - 34.3 °F 54% 29.76 in 10.0 mi West 10.4 mph 17.3 mph N/A   Clear
2:52 PM 50.4 °F - 34.3 °F 54% 29.75 in 10.0 mi West 13.8 mph - N/A   Clear
3:13 PM 49.6 °F - 34.0 °F 55% 29.76 in 10.0 mi WNW 9.2 mph - N/A   Clear
3:32 PM 49.1 °F - 34.0 °F 56% 29.76 in 10.0 mi West 12.7 mph 17.3 mph N/A   Clear
3:53 PM 48.2 °F - 33.8 °F 58% 29.77 in 10.0 mi West 12.7 mph - N/A   Clear
4:13 PM 46.9 °F - 33.3 °F 59% 29.77 in 10.0 mi West 10.4 mph - N/A   Clear
4:33 PM 45.3 °F 40.6 °F 32.7 °F 61% 29.78 in 10.0 mi West 9.2 mph - N/A   Clear
4:53 PM 43.5 °F 38.3 °F 32.4 °F 65% 29.78 in 10.0 mi West 9.2 mph - N/A   Clear
5:13 PM 39.9 °F 35.8 °F 31.6 °F 72% 29.79 in 10.0 mi WSW 5.8 mph - N/A   Clear
5:32 PM 36.1 °F 30.6 °F 30.0 °F 78% 29.79 in 10.0 mi West 6.9 mph - N/A   Clear
5:53 PM 35.2 °F 29.5 °F 29.8 °F 81% 29.79 in 10.0 mi WSW 6.9 mph - N/A   Clear
6:13 PM 32.9 °F 26.7 °F 28.4 °F 84% 29.80 in 10.0 mi West 6.9 mph - N/A   Clear
6:33 PM 32.9 °F 26.7 °F 29.1 °F 86% 29.80 in 10.0 mi West 6.9 mph - N/A   Clear
6:52 PM 32.5 °F 26.2 °F 28.8 °F 86% 29.80 in 10.0 mi West 6.9 mph - N/A   Clear
7:13 PM 33.6 °F 28.4 °F 29.7 °F 85% 29.81 in 10.0 mi WSW 5.8 mph - N/A   Clear
7:33 PM 32.0 °F 26.4 °F 28.2 °F 86% 29.81 in 10.0 mi West 5.8 mph - N/A   Clear
7:52 PM 31.1 °F 27.7 °F 28.4 °F 90% 29.81 in 10.0 mi WSW 3.5 mph - N/A   Clear
8:13 PM 31.5 °F 28.1 °F 28.6 °F 89% 29.81 in 10.0 mi West 3.5 mph - N/A   Clear
8:32 PM 30.2 °F - 28.0 °F 92% 29.81 in 10.0 mi Calm Calm - N/A   Clear
8:53 PM 30.0 °F - 28.0 °F 92% 29.81 in 10.0 mi Calm Calm - N/A   Clear
9:13 PM 29.5 °F - 27.5 °F 92% 29.81 in 10.0 mi Calm Calm - N/A   Clear
9:32 PM 30.0 °F - 28.6 °F 94% 29.81 in 7.0 mi Calm Calm - N/A   Clear
9:53 PM 27.3 °F - 25.9 °F 94% 29.81 in 7.0 mi Calm Calm - N/A   Clear
10:12 PM 27.9 °F - 26.6 °F 95% 29.81 in 7.0 mi Calm Calm - N/A   Clear
10:32 PM 27.0 °F - 25.7 °F 95% 29.80 in 7.0 mi Calm Calm - N/A   Clear
10:53 PM 26.1 °F - 24.8 °F 95% 29.80 in 5.0 mi Calm Calm - N/A   Clear
11:12 PM 26.6 °F - 25.5 °F 96% 29.79 in 5.0 mi Calm Calm - N/A   Clear
11:33 PM 27.1 °F - 26.1 °F 96% 29.79 in 5.0 mi Calm Calm - N/A   Clear
11:53 PM 28.4 °F - 27.7 °F 97% 29.79 in 7.0 mi Calm Calm - N/A   Clear